DELTA 1 DEB, 21472

Orbit data source: Space-Track

DELTA 1 DEB, 21472 is space debris in SSO originally from a launch on Thu, 12 Jun 1975 UTC launched from the Air Force Western Test Range (AFWTR). Debris objects in space refer to the collection of defunct objects orbiting the Earth. Examples of debris include non-operational satellites, rocket bodies, and fragments generated from explosions, collisions, or faulty payload assembly.

Loading next visibility...
Identifier
21472, 1975-052FG
Orbit
SSO
Country
Flag of USUS
Related business
Manufacturer
Unknown
Mission
Spacecraft
Bus & Motor
Unknown
Mass
Unknown
Launch date (UTC)
1975-06-12 (50 years ago)
Launch vehicle
Unknown
Launch site
Air Force Western Test Range (AFWTR)
Object type
Payload
Rocket body
Debris
Shape & HBR
Unknown shape, 0.1 m
Radar Cross Section
Small (<0.1 m²)

Expand to show TLE details & history
Last TLE update: 20 hours ago

TLE from 20 hours ago
0 DELTA 1 DEB
1 21472U 75052FG  25287.12471359  .00000859  00000-0  10045-2 0  9995
2 21472  99.7927 149.2615 0249049  32.4357 329.1818 13.58988832698371
Epoch: 2025-10-14T02:59Z
TLE epoch observation values (Epoch: 2025-10-14T02:59:35.254Z)
Latitude
0.00001°
Longitude
81.44697°
Altitude
884.735 km
Speed
7.488 km/s
True Right ascension
09h 57m 02s
True Declination
0° 00' 00"
Sunlit
Object was in daylight at epoch
Visualization orbit readout
Latitude
Unknown
Longitude
Unknown
Altitude
Unknown
Speed
Unknown
Apparent Right ascension
Unknown
Apparent Declination
Unknown
Sunlit
N/A
Visualization observer readout
Local Sidereal Time
17:25:36
Azimuth
Unknown
Elevation
Unknown
Doppler factor
Unknown
Orbital elements
Apogee altitude
1,221.326 km
Perigee altitude
851.996 km
Semi-major axis
7,414.798 km
Eccentricity
0.0249
Inclination
99.7927°
RAAN
149.2615°
Arg. of periapsis
32.4357°
True anomaly
327.67976°
Mean anomaly
329.1818°
Eccentric anomaly
328.43484°
Mean motion
3.39934 °/min
Orbital period
105.9 mins
BSTAR
0.0010045
Loading maneuver chart data...
Computing Atmospheric mass density...
Loading historical data...
Loading historical data...
Loading historical data...
Loading historical data...
Loading historical data...
Loading historical data...
Loading historical data...

Documentation

Showing up to 5 results
|